When you browse on this site, cookies collect data to enhance your experience and personalize the content and advertising you see.
Visit our Privacy Policy to learn more. By continuing to use the site, you agree to this use of cookies and data.
EN

Hourly Weather Olsztyn

Today, 10 July, Friday

Time Temperature Precipitation Wind Pressure Humidity
00:00 +14°C° 2.1 mm 4 mps 747 mmHg 96%
01:00 +15°C° 0 mm 6 mps 747 mmHg 95%
02:00 +15°C° 0.3 mm 5 mps 746 mmHg 95%
03:00 +15°C° 0.3 mm 5 mps 746 mmHg 96%
04:00 +16°C° 0.3 mm 5 mps 745 mmHg 96%
05:00 +16°C° 0 mm 5 mps 745 mmHg 95%
06:00 +16°C° 0 mm 5 mps 745 mmHg 93%
07:00 +17°C° 0 mm 5 mps 745 mmHg 92%
08:00 +19°C° 0 mm 5 mps 746 mmHg 86%
09:00 +20°C° 0 mm 5 mps 746 mmHg 80%
10:00 +21°C° 0 mm 5 mps 746 mmHg 74%
11:00 +21°C° 0 mm 5 mps 746 mmHg 72%
12:00 +22°C° 0 mm 4 mps 746 mmHg 70%
13:00 +23°C° 0 mm 4 mps 746 mmHg 68%
14:00 +22°C° 0 mm 3 mps 746 mmHg 72%
15:00 +21°C° 0 mm 3 mps 746 mmHg 77%
16:00 +21°C° 0 mm 2 mps 745 mmHg 81%
17:00 +21°C° 0.7 mm 3 mps 745 mmHg 84%
18:00 +21°C° 0.7 mm 3 mps 744 mmHg 86%
19:00 +21°C° 0.7 mm 4 mps 744 mmHg 89%
20:00 +20°C° 0.3 mm 4 mps 744 mmHg 91%
21:00 +20°C° 0.3 mm 4 mps 744 mmHg 92%
22:00 +19°C° 0.3 mm 5 mps 744 mmHg 93%
23:00 +16°C° 0 mm 5 mps 745 mmHg 92%

Tomorrow, 11 July, Saturday

Time Temperature Precipitation Wind Pressure Humidity
00:00 +15°C° 0 mm 5 mps 746 mmHg 92%
01:00 +14°C° 0 mm 6 mps 747 mmHg 91%
02:00 +13°C° 0 mm 5 mps 748 mmHg 91%
03:00 +12°C° 0 mm 5 mps 749 mmHg 91%
04:00 +11°C° 0 mm 4 mps 749 mmHg 92%
05:00 +11°C° 0 mm 4 mps 750 mmHg 87%
06:00 +12°C° 0 mm 4 mps 750 mmHg 82%
07:00 +13°C° 0 mm 4 mps 751 mmHg 77%
08:00 +14°C° 0 mm 4 mps 751 mmHg 73%
09:00 +15°C° 0 mm 4 mps 752 mmHg 70%
10:00 +17°C° 0 mm 4 mps 753 mmHg 66%
11:00 +17°C° 0 mm 4 mps 753 mmHg 65%
12:00 +18°C° 0 mm 4 mps 753 mmHg 64%
13:00 +18°C° 0 mm 3 mps 754 mmHg 63%
14:00 +18°C° 0.1 mm 3 mps 754 mmHg 64%
15:00 +18°C° 0.1 mm 3 mps 754 mmHg 65%
16:00 +18°C° 0.1 mm 3 mps 754 mmHg 66%
17:00 +17°C° 0.1 mm 2 mps 754 mmHg 71%
18:00 +16°C° 0.1 mm 2 mps 754 mmHg 77%
19:00 +15°C° 0.1 mm 1 mps 753 mmHg 82%
20:00 +14°C° 0 mm 2 mps 754 mmHg 84%
21:00 +14°C° 0 mm 2 mps 754 mmHg 86%
22:00 +13°C° 0 mm 2 mps 754 mmHg 88%
23:00 +12°C° 0 mm 2 mps 754 mmHg 88%

Day after tomorrow, 12 July, Sunday

Time Temperature Precipitation Wind Pressure Humidity
00:00 +12°C° 0 mm 2 mps 754 mmHg 88%
01:00 +10°C° 0 mm 2 mps 754 mmHg 88%
02:00 +10°C° 0 mm 2 mps 754 mmHg 89%
03:00 +10°C° 0 mm 2 mps 754 mmHg 90%
04:00 +9°C° 0 mm 2 mps 754 mmHg 91%
05:00 +12°C° 0 mm 2 mps 754 mmHg 87%
06:00 +13°C° 0 mm 2 mps 754 mmHg 83%
07:00 +13°C° 0 mm 3 mps 755 mmHg 78%
08:00 +14°C° 0.1 mm 3 mps 755 mmHg 73%
09:00 +17°C° 0.1 mm 3 mps 755 mmHg 68%
10:00 +18°C° 0.1 mm 4 mps 755 mmHg 62%
11:00 +18°C° 0.2 mm 4 mps 755 mmHg 61%
12:00 +18°C° 0.2 mm 3 mps 755 mmHg 59%
13:00 +19°C° 0.2 mm 3 mps 755 mmHg 57%
14:00 +18°C° 0.2 mm 3 mps 755 mmHg 61%
15:00 +18°C° 0.2 mm 3 mps 755 mmHg 64%
16:00 +18°C° 0.2 mm 3 mps 755 mmHg 68%
17:00 +17°C° 0.2 mm 3 mps 755 mmHg 74%
18:00 +16°C° 0.2 mm 2 mps 755 mmHg 80%
19:00 +15°C° 0.2 mm 2 mps 755 mmHg 86%
20:00 +14°C° 0 mm 2 mps 755 mmHg 88%
21:00 +12°C° 0 mm 2 mps 755 mmHg 91%
22:00 +10°C° 0 mm 2 mps 755 mmHg 93%
23:00 +10°C° 0 mm 2 mps 755 mmHg 94%

13 July, Monday

Time Temperature Precipitation Wind Pressure Humidity
00:00 +9°C° 0 mm 2 mps 754 mmHg 94%
01:00 +9°C° 0 mm 3 mps 754 mmHg 95%
02:00 +8°C° 0 mm 3 mps 754 mmHg 96%
03:00 +8°C° 0 mm 3 mps 754 mmHg 96%
04:00 +8°C° 0 mm 3 mps 754 mmHg 97%
05:00 +10°C° 0 mm 3 mps 754 mmHg 93%
06:00 +12°C° 0 mm 3 mps 754 mmHg 89%
07:00 +14°C° 0 mm 4 mps 754 mmHg 85%
08:00 +15°C° 0.1 mm 4 mps 754 mmHg 79%
09:00 +18°C° 0.1 mm 4 mps 754 mmHg 73%
10:00 +19°C° 0.1 mm 4 mps 754 mmHg 67%
11:00 +20°C° 0.2 mm 4 mps 753 mmHg 65%
12:00 +20°C° 0.2 mm 4 mps 753 mmHg 62%
13:00 +21°C° 0.2 mm 4 mps 753 mmHg 59%
14:00 +20°C° 0.1 mm 4 mps 753 mmHg 60%
15:00 +20°C° 0.1 mm 4 mps 753 mmHg 62%
16:00 +20°C° 0.1 mm 4 mps 752 mmHg 63%
17:00 +18°C° 0 mm 4 mps 752 mmHg 69%
18:00 +17°C° 0 mm 3 mps 752 mmHg 76%
19:00 +16°C° 0 mm 3 mps 753 mmHg 82%
20:00 +15°C° 0 mm 2 mps 753 mmHg 87%
21:00 +13°C° 0 mm 2 mps 753 mmHg 92%
22:00 +12°C° 0 mm 2 mps 753 mmHg 97%
23:00 +12°C° 0 mm 2 mps 753 mmHg 97%

14 July, Tuesday

Time Temperature Precipitation Wind Pressure Humidity
00:00 +10°C° 0 mm 2 mps 753 mmHg 97%
01:00 +11°C° 0 mm 1 mps 753 mmHg 97%
02:00 +11°C° 0 mm 1 mps 753 mmHg 97%
03:00 +11°C° 0 mm 1 mps 752 mmHg 97%
04:00 +10°C° 0 mm 1 mps 752 mmHg 97%
05:00 +12°C° 0 mm 2 mps 752 mmHg 92%
06:00 +14°C° 0 mm 2 mps 752 mmHg 87%
07:00 +16°C° 0 mm 2 mps 753 mmHg 81%
08:00 +17°C° 0 mm 2 mps 752 mmHg 74%
09:00 +19°C° 0 mm 1 mps 752 mmHg 67%
10:00 +20°C° 0 mm 1 mps 752 mmHg 60%
11:00 +21°C° 0 mm 1 mps 752 mmHg 59%
12:00 +21°C° 0 mm 1 mps 752 mmHg 58%
13:00 +21°C° 0 mm 1 mps 752 mmHg 58%
14:00 +21°C° 0 mm 1 mps 752 mmHg 56%
15:00 +22°C° 0 mm 1 mps 751 mmHg 55%
16:00 +22°C° 0 mm 1 mps 751 mmHg 54%
17:00 +21°C° 0 mm 1 mps 751 mmHg 60%
18:00 +20°C° 0 mm 1 mps 751 mmHg 66%
19:00 +18°C° 0 mm 1 mps 751 mmHg 72%
20:00 +16°C° 0 mm 1 mps 751 mmHg 76%
21:00 +15°C° 0 mm 1 mps 751 mmHg 80%
22:00 +13°C° 0 mm 1 mps 751 mmHg 83%
23:00 +13°C° 0 mm 1 mps 751 mmHg 85%

15 July, Wednesday

Time Temperature Precipitation Wind Pressure Humidity
00:00 +13°C° 0 mm 1 mps 751 mmHg 86%
01:00 +12°C° 0 mm 1 mps 751 mmHg 88%
02:00 +12°C° 0 mm 1 mps 751 mmHg 88%
03:00 +12°C° 0 mm 1 mps 750 mmHg 89%
04:00 +12°C° 0 mm 1 mps 750 mmHg 89%
05:00 +14°C° 0 mm 2 mps 750 mmHg 84%
06:00 +15°C° 0 mm 2 mps 750 mmHg 79%
07:00 +17°C° 0 mm 2 mps 750 mmHg 73%
08:00 +18°C° 0 mm 2 mps 750 mmHg 68%
09:00 +20°C° 0 mm 2 mps 750 mmHg 63%
10:00 +21°C° 0 mm 2 mps 750 mmHg 57%
11:00 +23°C° 0 mm 2 mps 749 mmHg 55%
12:00 +24°C° 0 mm 3 mps 749 mmHg 53%
13:00 +24°C° 0 mm 3 mps 749 mmHg 51%
14:00 +24°C° 0 mm 3 mps 749 mmHg 53%
15:00 +24°C° 0 mm 3 mps 748 mmHg 54%
16:00 +24°C° 0 mm 3 mps 748 mmHg 56%
17:00 +22°C° 0 mm 3 mps 747 mmHg 62%
18:00 +21°C° 0 mm 2 mps 747 mmHg 69%
19:00 +20°C° 0 mm 2 mps 747 mmHg 76%
20:00 +19°C° 0 mm 3 mps 746 mmHg 79%
21:00 +18°C° 0 mm 3 mps 746 mmHg 82%
22:00 +17°C° 0 mm 3 mps 746 mmHg 85%
23:00 +17°C° 0 mm 3 mps 746 mmHg 85%
Show more